| time (UTC) | temp C | wind direction | speed KPH | gust KPH | rain 1hr cm | rain 24hr cm | rain mn cm | humidity % | barometer mb |
| 20260901133029 | 17 | 132 | 4.8 | 11.3 | 0.00 | 0.33 | 0.30 | 99 | 1014.8 |
| 20260901131514 | 17 | 175 | 6.4 | 11.3 | 0.00 | 0.33 | 0.30 | 99 | 1014.7 |
| 20260901130034 | 17 | 165 | 4.8 | 12.9 | 0.00 | 0.33 | 0.30 | 99 | 1014.9 |
| 20260901124523 | 17 | 136 | 8.0 | 14.5 | 0.00 | 0.33 | 0.30 | 99 | 1015.0 |
| 20260901123028 | 17 | 162 | 6.4 | 14.5 | 0.00 | 0.33 | 0.30 | 99 | 1015.1 |
| 20260901121532 | 17 | 171 | 6.4 | 16.1 | 0.00 | 0.33 | 0.30 | 99 | 1015.1 |
| 20260901120027 | 17 | 140 | 4.8 | 12.9 | 0.00 | 0.33 | 0.30 | 99 | 1015.2 |
| 20260901114521 | 17 | 161 | 4.8 | 9.7 | 0.00 | 0.33 | 0.30 | 99 | 1015.2 |
| 20260901113034 | 17 | 157 | 3.2 | 8.0 | 0.00 | 0.33 | 0.30 | 98 | 1015.2 |
| 20260901111532 | 17 | 154 | 1.6 | 9.7 | 0.00 | 0.33 | 0.30 | 98 | 1015.2 |
| 20260901110040 | 17 | 174 | 4.8 | 9.7 | 0.00 | 0.33 | 0.30 | 98 | 1014.7 |
| 20260901104519 | 17 | 195 | 1.6 | 9.7 | 0.00 | 0.33 | 0.30 | 99 | 1015.1 |
| 20260901103028 | 17 | 130 | 0.0 | 6.4 | 0.00 | 0.33 | 0.30 | 98 | 1015.1 |
| 20260901101530 | 17 | 167 | 4.8 | 8.0 | 0.03 | 0.33 | 0.30 | 98 | 1015.1 |
| 20260901100033 | 17 | 204 | 1.6 | 8.0 | 0.05 | 0.33 | 0.30 | 98 | 1015.2 |
| 20260901094534 | 17 | 170 | 1.6 | 8.0 | 0.05 | 0.33 | 0.30 | 98 | 1015.3 |
| 20260901093024 | 17 | 195 | 1.6 | 9.7 | 0.05 | 0.33 | 0.30 | 98 | 1015.4 |
| 20260901091525 | 17 | 213 | 1.6 | 4.8 | 0.03 | 0.30 | 0.28 | 98 | 1015.5 |
| 20260901090028 | 17 | 119 | 1.6 | 4.8 | 0.00 | 0.28 | 0.25 | 98 | 1015.5 |
| 20260901084530 | 17 | 209 | 1.6 | 4.8 | 0.03 | 0.28 | 0.25 | 98 | 1015.3 |
| 20260901083033 | 17 | 154 | 1.6 | 9.7 | 0.03 | 0.28 | 0.25 | 98 | 1015.3 |
| 20260901081506 | 17 | 151 | 4.8 | 9.7 | 0.05 | 0.28 | 0.25 | 98 | 1015.1 |
| 20260901080006 | 17 | 184 | 3.2 | 8.0 | 0.20 | 0.28 | 0.25 | 98 | 1015.4 |
| 20260901074508 | 17 | 174 | 0.0 | 9.7 | 0.23 | 0.25 | 0.23 | 98 | 1015.5 |
| 20260901073007 | 17 | 187 | 1.6 | 8.0 | 0.23 | 0.25 | 0.23 | 98 | 1015.7 |
| 20260901071518 | 17 | 152 | 4.8 | 9.7 | 0.20 | 0.23 | 0.20 | 98 | 1015.7 |
| 20260901070017 | 17 | 170 | 3.2 | 9.7 | 0.05 | 0.08 | 0.05 | 97 | 1015.7 |
| 20260901064505 | 17 | 194 | 4.8 | 8.0 | 0.00 | 0.03 | 0.00 | 97 | 1016.0 |
| 20260901063007 | 17 | 209 | 4.8 | 9.7 | 0.00 | 0.03 | 0.00 | 97 | 1016.1 |
| 20260901061508 | 17 | 157 | 3.2 | 9.7 | 0.00 | 0.03 | 0.00 | 96 | 1016.3 |
| 20260901060008 | 17 | 150 | 1.6 | 9.7 | 0.00 | 0.03 | 0.00 | 96 | 1016.4 |
| 20260901054512 | 17 | 134 | 4.8 | 12.9 | 0.00 | 0.03 | 0.00 | 96 | 1016.5 |
| 20260901053010 | 17 | 192 | 1.6 | 9.7 | 0.00 | 0.03 | 0.00 | 96 | 1016.7 |
| 20260901051509 | 17 | 145 | 1.6 | 6.4 | 0.00 | 0.03 | 0.00 | 95 | 1016.9 |
| 20260901050010 | 17 | 130 | 4.8 | 12.9 | 0.00 | 0.03 | 0.00 | 95 | 1016.7 |
| 20260901044514 | 17 | 174 | 3.2 | 8.0 | 0.00 | 0.03 | 0.00 | 95 | 1016.7 |
| 20260901043008 | 17 | 153 | 3.2 | 8.0 | 0.00 | 0.03 | 0.00 | 94 | 1017.1 |
| 20260901041511 | 17 | 163 | 3.2 | 8.0 | 0.00 | 0.03 | 0.00 | 94 | 1017.1 |
| 20260901040012 | 17 | 163 | 1.6 | 3.2 | 0.00 | 0.03 | 0.00 | 93 | 1017.4 |
| 20260901034522 | 17 | 163 | 1.6 | 6.4 | 0.00 | 0.03 | 0.03 | 93 | 1017.3 |
| 20260901033012 | 17 | 155 | 3.2 | 8.0 | 0.00 | 0.03 | 0.03 | 93 | 1017.2 |
| 20260901031507 | 17 | 140 | 3.2 | 6.4 | 0.00 | 0.03 | 0.03 | 92 | 1017.2 |
| 20260901030013 | 17 | 134 | 1.6 | 8.0 | 0.00 | 0.03 | 0.03 | 92 | 1017.3 |
| 20260901024514 | 17 | 180 | 4.8 | 11.3 | 0.00 | 0.03 | 0.03 | 92 | 1017.2 |
| 20260901023019 | 17 | 188 | 3.2 | 8.0 | 0.00 | 0.03 | 0.03 | 92 | 1017.4 |
| 20260901021520 | 17 | 153 | 1.6 | 9.7 | 0.00 | 0.03 | 0.03 | 92 | 1017.6 |
| 20260901020012 | 17 | 163 | 3.2 | 8.0 | 0.00 | 0.03 | 0.03 | 92 | 1017.6 |
| 20260901014516 | 17 | 159 | 4.8 | 9.7 | 0.00 | 0.03 | 0.03 | 92 | 1017.6 |
| 20260901013018 | 17 | 160 | 3.2 | 8.0 | 0.00 | 0.03 | 0.03 | 92 | 1017.8 |
| 20260901011523 | 17 | 180 | 0.0 | 6.4 | 0.00 | 0.03 | 0.03 | 92 | 1018.0 |
| 20260901010018 | 17 | 163 | 1.6 | 6.4 | 0.00 | 0.03 | 0.03 | 92 | 1018.1 |
| 20260901004516 | 17 | 153 | 3.2 | 8.0 | 0.00 | 0.03 | 0.03 | 91 | 1017.8 |
| 20260901003020 | 17 | 159 | 4.8 | 11.3 | 0.00 | 0.03 | 0.03 | 91 | 1017.6 |
| 20260901001519 | 17 | 166 | 3.2 | 9.7 | 0.00 | 0.03 | 0.03 | 91 | 1017.4 |
| 20260901000021 | 17 | 175 | 4.8 | 11.3 | 0.00 | 0.03 | 0.03 | 91 | 1017.5 |
| 20260831234519 | 17 | 160 | 4.8 | 9.7 | 0.00 | 0.03 | 0.03 | 91 | 1017.4 |
| 20260831233017 | 17 | 150 | 4.8 | 9.7 | 0.00 | 0.03 | 0.03 | 91 | 1017.6 |
| 20260831231519 | 17 | 176 | 1.6 | 11.3 | 0.00 | 0.03 | 0.03 | 91 | 1017.7 |
| 20260831230019 | 17 | 175 | 6.4 | 12.9 | 0.00 | 0.03 | 0.03 | 91 | 1017.7 |
| 20260831224512 | 18 | 161 | 1.6 | 8.0 | 0.00 | 0.03 | 0.03 | 90 | 1017.9 |
| 20260831223019 | 18 | 161 | 3.2 | 14.5 | 0.00 | 0.03 | 0.03 | 90 | 1018.0 |
| 20260831221523 | 18 | 159 | 6.4 | 17.7 | 0.00 | 0.03 | 0.03 | 90 | 1018.0 |
| 20260831220025 | 18 | 185 | 4.8 | 12.9 | 0.00 | 0.03 | 0.03 | 90 | 1018.1 |
| 20260831214508 | 18 | 137 | 4.8 | 11.3 | 0.00 | 0.03 | 0.03 | 90 | 1018.1 |
| 20260831213014 | 17 | 143 | 3.2 | 11.3 | 0.00 | 0.03 | 0.03 | 91 | 1018.2 |
| 20260831211520 | 17 | 173 | 3.2 | 16.1 | 0.00 | 0.03 | 0.03 | 91 | 1018.4 |
| 20260831210025 | 17 | 153 | 6.4 | 14.5 | 0.00 | 0.03 | 0.03 | 91 | 1018.5 |
| 20260831204523 | 17 | 149 | 9.7 | 16.1 | 0.00 | 0.03 | 0.03 | 91 | 1018.6 |
| 20260831203013 | 17 | 161 | 8.0 | 17.7 | 0.00 | 0.03 | 0.03 | 91 | 1018.7 |
| 20260831201528 | 17 | 199 | 3.2 | 16.1 | 0.00 | 0.03 | 0.03 | 90 | 1018.6 |
| 20260831200038 | 17 | 136 | 8.0 | 19.3 | 0.00 | 0.03 | 0.03 | 90 | 1018.7 |
| 20260831194531 | 17 | 144 | 8.0 | 22.5 | 0.00 | 0.03 | 0.03 | 89 | 1018.8 |
| 20260831193037 | 17 | 183 | 8.0 | 19.3 | 0.00 | 0.03 | 0.03 | 90 | 1018.8 |
| 20260831191533 | 17 | 136 | 9.7 | 20.9 | 0.00 | 0.03 | 0.03 | 89 | 1019.0 |
| 20260831190029 | 18 | 135 | 12.9 | 19.3 | 0.00 | 0.08 | 0.03 | 88 | 1019.3 |
| 20260831184529 | 18 | 181 | 6.4 | 14.5 | 0.00 | 0.08 | 0.03 | 87 | 1019.4 |
| 20260831183029 | 18 | 187 | 1.6 | 9.7 | 0.00 | 0.13 | 0.03 | 89 | 1019.4 |
| 20260831181528 | 18 | 195 | 3.2 | 11.3 | 0.00 | 0.23 | 0.03 | 90 | 1019.6 |
| 20260831180042 | 18 | 170 | 1.6 | 11.3 | 0.00 | 0.30 | 0.03 | 90 | 1019.6 |
| 20260831174532 | 18 | 172 | 4.8 | 14.5 | 0.00 | 0.43 | 0.03 | 90 | 1019.9 |
| 20260831173027 | 18 | 134 | 6.4 | 12.9 | 0.03 | 0.43 | 0.03 | 91 | 1020.1 |
| 20260831171508 | 18 | 167 | 3.2 | 11.3 | 0.03 | 0.43 | 0.03 | 92 | 1020.0 |
| 20260831170013 | 18 | 132 | 3.2 | 8.0 | 0.03 | 0.43 | 0.03 | 93 | 1020.3 |
| 20260831164535 | 18 | 170 | 6.4 | 12.9 | 0.03 | 0.43 | 0.03 | 92 | 1020.3 |
| 20260831163027 | 18 | 180 | 1.6 | 11.3 | 0.00 | 0.41 | 0.00 | 92 | 1020.4 |
| 20260831161530 | 18 | 178 | 4.8 | 14.5 | 0.00 | 0.41 | 0.00 | 89 | 1020.6 |
| 20260831160013 | 18 | 163 | 3.2 | 11.3 | 0.00 | 0.41 | 0.00 | 89 | 1020.6 |
| 20260831154544 | 18 | 186 | 8.0 | 14.5 | 0.00 | 0.41 | 0.00 | 89 | 1020.6 |
| 20260831153027 | 18 | 153 | 8.0 | 12.9 | 0.00 | 0.41 | 0.00 | 91 | 1020.4 |
| 20260831151527 | 18 | 200 | 3.2 | 14.5 | 0.00 | 0.41 | 0.00 | 92 | 1020.5 |
| 20260831150012 | 18 | 153 | 3.2 | 16.1 | 0.00 | 0.41 | 0.00 | 92 | 1020.5 |
| 20260831144517 | 18 | 146 | 6.4 | 17.7 | 0.00 | 0.41 | 0.00 | 93 | 1020.4 |
| 20260831143022 | 18 | 163 | 6.4 | 17.7 | 0.00 | 0.41 | 0.00 | 95 | 1020.4 |
| 20260831141527 | 17 | 155 | 4.8 | 12.9 | 0.00 | 0.41 | 0.00 | 96 | 1020.3 |
| 20260831140031 | 17 | 106 | 3.2 | 14.5 | 0.00 | 0.41 | 0.00 | 97 | 1020.3 |
| 20260831134512 | 17 | 183 | 8.0 | 17.7 | 0.00 | 0.41 | 0.00 | 98 | 1020.3 |